Find Starlink 30556

NORAD ID: 58031 Int'l Des: 2023-156 Owner: SPXS Country: US Constellation: starlink operational
LEOCIRCULAR

Current View

Loading 3D Globe...

About Starlink 30556

Starlink 30556 (NORAD 58031) is a starlink constellation satellite (v2 mini) launched Oct 9, 2023 by SPXS of US. It operates in LEO, CIRCULAR orbit with a mass of 730.00 kg.

About Starlink 30556

Description loading...

Upcoming Passes

Passes for default location (London). Set your location on the main map for personalized predictions.

Altitude History

Loading altitude history...

Two-Line Element Set

1 58031U 23156D 26169.75888794 .00000491 00000-0 25681-4 0 9994
2 58031 53.1623 337.6113 0001452 121.8074 238.3071 15.34388385151658
Epoch: Jun 18, 2026 • Age: 26 hours

Current Status

Altitude 480.6 km
Velocity 7.62 km/s
Sub-Earth Point -49.24°S, 57.39°E
Launch Date Oct 9, 2023
Age 2.6 years
Type internet

Technical Details

Classification Payload
Mass 730.00 kg
Dry Mass 700.00 kg
Total Mass 730.00 kg
Length 0.30 m
Diameter 4.10 m
Span 29.00 m
Shape Box + pan
Manufacturer SPXS
Bus Type Starlink V2M
Phase Status In Orbit
Owner/State SPXS/US

Most Searched